weather.gov     
National Weather Service

Regional Weather Roundup
NWS Homepage
This page is being discontinued on March 12, 2014.
The same data is available at this site. Please update your bookmarks.
Thank you, and we apologize for the inconvenience.
Please send an email to SR-SRH.Webmaster@noaa.gov with any concerns.


Current Version
Previous Version:    01  02  03  04  05  06  07  08  09  10  11  12  13  14  15  16  17  18  19  20  21  22  23  24  25  26  
[Printable]
575
ASUS43 KDMX 300207
RWRIA

WEATHER ROUNDUP FOR IOWA
NATIONAL WEATHER SERVICE DES MOINES IA
900 PM CDT FRI AUG 29 2014

NOTE: "FAIR" INDICATES FEW OR NO CLOUDS BELOW 12,000 FEET WITH NO
SIGNIFICANT WEATHER AND/OR OBSTRUCTIONS TO VISIBILITY.

* - THESE STATIONS ARE NOT NWS STATIONS...THUS NOT UNDER NWS
QUALITY CONTROL.  THEY ALSO DO NOT REPORT WEATHER SUCH
AS PRECIPITATION OR FOG.

IAZ001>003-012>014-020>022-031>034-043>046-300300-
   NORTHWEST IOWA

CITY           SKY/WX    TMP DP  RH WIND       PRES   REMARKS
CARROLL *      DRIZZLE   66  66 100 SW5       29.78R
CHEROKEE *     LGT RAIN  66  66 100 CALM      29.80R
DENISON *      RAIN      66  66 100 W6        29.78R
LE MARS *      CLEAR     68  68 100 CALM      29.81R
ORANGE CITY *  CLEAR     68  64  88 CALM      29.80R
SHELDON *      MOCLDY    66  66 100 CALM      29.78S
SIOUX CITY     CLOUDY    70  67  90 SE5       29.80R
SPENCER        CLOUDY    67  65  93 S3        29.78S
STORM LAKE *   HVY RAIN  66  66 100 CALM      29.79F
$$

IAZ055>058-069>071-079>083-090>094-300300-
   SOUTHWEST IOWA

CITY           SKY/WX    TMP DP  RH WIND       PRES   REMARKS
ATLANTIC *     MOCLDY    66  66 100 S3        29.80R
AUDUBON *      PTCLDY    68  66  94 SW5       29.80S
CLARINDA *     DRIZZLE   72  70  94 W10       29.83R
COUNCIL BLFS * PTCLDY    68  68 100 W5        29.80R
CRESTON *      MOCLDY    68  66  94 SW3       29.82R
HARLAN  *      CLOUDY    68  68 100 CALM      29.83S
LAMONI         PTCLDY    71  68  90 S5        29.81R
RED OAK *      CLOUDY    70  68  94 S3        29.80S
SHENANDOAH *   MOCLDY    72  70  94 CALM      29.81R
$$

IAZ047>049-059>061-072>074-084-300300-
   CENTRAL IOWA

CITY           SKY/WX    TMP DP  RH WIND       PRES   REMARKS
AMES           CLOUDY    69  67  93 CALM      29.77S
ANKENY *       MOCLDY    70  68  94 S13       29.78R FOG
CHARITON *     CLEAR     68  68 100 S6        29.79F
DES MOINES     LGT RAIN  71  68  90 SW6       29.78R
GRINNELL*      CLOUDY    68  66  94 S7        29.81R
KNOXVILLE *    CLEAR     68  66  94 S5        29.78S
MARSHALLTOWN   CLOUDY    69  68  96 S3        29.79R
PELLA *        PTCLDY    68  68 100 SE3       29.80S
PERRY *        HVY RAIN  68  68 100 W14       29.77S
$$

IAZ004>006-015-016-023>025-035-036-300300-
   NORTH CENTRAL IOWA

CITY           SKY/WX    TMP DP  RH WIND       PRES   REMARKS
ALGONA *       CLOUDY    72  70  94 CALM      29.78S
CLARION *      CLOUDY    68  68 100 CALM      29.78S
ESTHERVILLE    CLOUDY    67  66  97 S7        29.77S
FORT DODGE *   CLOUDY    68  66  94 CALM      29.78S
MASON CITY     CLOUDY    68  67  96 CALM      29.80S
FOREST CITY *  RAIN      64  64 100 SW7       29.78S
IOWA FALLS *   CLOUDY    70  68  94 CALM      29.79S
$$

IAZ007>011-017>019-026>030-037>042-050>054-066-300300-
   NORTHEAST IOWA

CITY           SKY/WX    TMP DP  RH WIND       PRES   REMARKS
CEDAR RAPIDS   LGT RAIN  69  69 100 SW5       29.80R FOG
CHARLES CITY * CLOUDY    66  64  94 CALM      29.81R
CLINTON *      CLOUDY    75  70  83 S10       29.83R
DECORAH *      CLOUDY    68  68 100 CALM      29.80S FOG
DUBUQUE        CLOUDY    76  70  82 SE8       29.79F
MONTICELLO *   CLEAR     70  68  94 CALM      29.79S
OELWEIN *      CLOUDY    68  68 100 NW5       29.79S
WATERLOO       CLOUDY    69  65  86 S5        29.78S
$$

IAZ064-065-067-068-078-300300-
   EAST CENTRAL IOWA

CITY           SKY/WX    TMP DP  RH WIND       PRES   REMARKS
DAVENPORT      CLOUDY    75  70  84 S10       29.82R
IOWA CITY      CLOUDY    72  70  93 S5        29.80R
MT. PLEASANT * MOCLDY    72  70  94 S6        29.82R
MUSCATINE *    CLOUDY    75  70  83 S9G16     29.81R
QUAD CITIES    CLOUDY    73  66  78 S14       29.82R
$$

IAZ062-063-075>077-085>089-095>099-300300-
   SOUTHEAST IOWA

CITY           SKY/WX    TMP DP  RH WIND       PRES   REMARKS
BURLINGTON     CLOUDY    72  70  93 SE8       29.84R
FAIRFIELD *    MOCLDY    72  70  94 S6        29.81R
FORT MADISON * PTCLDY    73  72  94 S8        29.84R
KEOKUK *       PTCLDY    73  72  94 S8        29.82S
OSKALOOSA *    MOCLDY    70  68  94 S5        29.81R FOG
CENTERVILLE *  CLEAR     68  68 100 SE5       29.82S
OTTUMWA        MOCLDY    70  69  97 S6        29.80S
WASHINGTON *   CLOUDY    72  70  94 S7        29.80R
$$

ABBREVIATIONS USED IN REMARKS
   TC - TEMPERATURES IN CELSIUS
  WCI - WIND CHILL INDEX
   HX - HEAT INDEX
  VSB - VISIBILITY
$$





U.S. Dept. of Commerce
NOAA National Weather Service
1325 East West Highway
Silver Spring, MD 20910
E-mail: w-nws.webmaster@noaa.gov
Page last modified: May 16, 2007
NATIONAL WEATHER SERVICE: for Safety, for Work, for Fun - FOR LIFE